Location: Gadern
(49.5873°N, 8.8138°E)
Time: 01:17:44
(UTC+00:00)

Cosmos 1814 Rocket - Pass Details

Date: 19 May 2025
Orbit: 740 x 783 km, 74.1° (Epoch: 23 June)

Event Time Altitude Azimuth Distance (km) Brightness Sun altitude
Rises 19:45:05 0° 193° (SSW) 3,167 6.9 -5.6°
Reaches altitude 10° 19:47:25 10° 191° (S) 2,251 6.1 -5.9°
Maximum altitude 19:52:28 67° 109° (ESE) 812 4.0 -6.5°
Drops below altitude 10° 19:57:36 10° 28° (NNE) 2,289 6.7 -7.1°
Sets 20:00:00 0° 26° (NNE) 3,225 7.5 -7.4°
